Slayton, MN

7:12 AM CST on December 11, 2016 (GMT -0600)
Slayton

Weather History for KDVP - July, 2013

Change the Weather History Date:

Monday, July 15, 2013

  Actual Average (KOTG) Record (KOTG)
Temperature  
Mean Temperature 72 °F -  
Max Temperature 85 °F 78 °F 95 °F (1980)
Min Temperature 59 °F 60 °F 48 °F (1973)
Cooling Degree Days 6    
Growing Degree Days 22 (Base 50)    
Moisture  
Dew Point 62 °F    
Average Humidity 70    
Maximum Humidity 99    
Minimum Humidity 39    
Precipitation  
Precipitation 0.00 in - - ()
Sea Level Pressure  
Sea Level Pressure 30.22 in    
Wind  
Wind Speed 4 mph (SSE)    
Max Wind Speed 14 mph    
Max Gust Speed 21 mph    
Visibility 8 miles    
Events      
Averages and records for this station are not official NWS values.
T = Trace of Precipitation, MM = Missing Value Source: NWS Daily Summary

Daily Weather History Graph

Daily Weather History Graph

Search for Another Location

Airport or City:

Trip Planner

Search our weather history database for the weather conditions in past years. The results will help you decide how hot, cold, wet, or windy it might be!

Date:

Astronomy

Jul. 15, 2013 Rise Set
Actual Time 5:54 AM CDT 9:03 PM CDT
Civil Twilight 5:19 AM CDT 9:38 PM CDT
Nautical Twilight 4:34 AM CDT 10:22 PM CDT
Astronomical Twilight 3:40 AM CDT 11:16 PM CDT
Moon 1:32 PM CDT (7/15) 12:00 AM CDT (7/15)
Length of Visible Light 16h 18m
Length of Day
15h 08m
Waxing Crescent, 45% of the Moon is Illuminated
Jul 15
Waxing Crescent
Jul 15
First Quarter
Jul 22
Full
Jul 29
Last Quarter
Aug 6
New

Hourly Weather History & Observations

Time (CDT) Temp. Heat Index Dew Point Humidity Pressure Visibility Wind Dir Wind Speed Gust Speed Precip Events Conditions
12:13 AM 67.6 °F - 64.4 °F 89% 30.22 in 10.0 mi Calm Calm - N/A   Overcast
12:32 AM 66.6 °F - 64.6 °F 93% 30.22 in 10.0 mi Calm Calm - N/A   Mostly Cloudy
12:53 AM 66.4 °F - 64.4 °F 93% 30.22 in 7.0 mi Calm Calm - N/A   Scattered Clouds
1:13 AM 66.2 °F - 64.0 °F 93% 30.22 in 10.0 mi Calm Calm - N/A   Clear
1:33 AM 64.9 °F - 63.5 °F 95% 30.22 in 7.0 mi Calm Calm - N/A   Clear
1:53 AM 64.4 °F - 63.5 °F 97% 30.22 in 7.0 mi Calm Calm - N/A   Clear
2:13 AM 64.8 °F - 63.7 °F 96% 30.21 in 7.0 mi Calm Calm - N/A   Clear
2:34 AM 63.0 °F - 62.1 °F 97% 30.21 in 5.0 mi SE 4.6 mph - N/A   Clear
2:54 AM 62.6 °F - 61.9 °F 97% 30.22 in 4.0 mi SSE 4.6 mph - N/A   Clear
3:13 AM 61.5 °F - 61.0 °F 98% 30.22 in 4.0 mi SE 5.8 mph - N/A   Clear
3:33 AM 61.5 °F - 61.0 °F 98% 30.22 in 4.0 mi SE 5.8 mph - N/A   Clear
3:53 AM 62.2 °F - 61.9 °F 99% 30.22 in 2.5 mi Calm Calm - N/A   Clear
4:13 AM 61.2 °F - 60.8 °F 99% 30.22 in 5.0 mi Calm Calm - N/A   Clear
4:33 AM 61.2 °F - 61.0 °F 99% 30.22 in 1.2 mi Calm Calm - N/A   Mist
4:54 AM 59.2 °F - 58.8 °F 99% 30.22 in 1.8 mi South 3.5 mph - N/A   Mist
5:13 AM 61.5 °F - 61.2 °F 99% 30.23 in 0.8 mi South 3.5 mph - N/A   Mist
5:33 AM 61.9 °F - 61.7 °F 99% 30.23 in 7.0 mi South 4.6 mph - N/A   Clear
5:53 AM 60.8 °F - 60.1 °F 97% 30.23 in 4.0 mi South 3.5 mph - N/A   Clear
6:13 AM 59.0 °F - 58.5 °F 98% 30.24 in 2.5 mi SSE 4.6 mph - N/A   Clear
6:32 AM 59.4 °F - 59.0 °F 99% 30.24 in 4.0 mi SSE 4.6 mph - N/A   Clear
6:54 AM 61.3 °F - 60.4 °F 97% 30.24 in 4.0 mi South 4.6 mph - N/A   Clear
7:13 AM 63.7 °F - 61.9 °F 94% 30.25 in 5.0 mi South 3.5 mph - N/A   Clear
7:33 AM 65.7 °F - 62.2 °F 89% 30.25 in 10.0 mi South 3.5 mph - N/A   Clear
7:53 AM 67.3 °F - 63.0 °F 86% 30.26 in 7.0 mi South 5.8 mph - N/A   Clear
8:13 AM 69.3 °F - 63.0 °F 80% 30.26 in 10.0 mi South 4.6 mph - N/A   Clear
8:34 AM 71.8 °F - 63.9 °F 76% 30.26 in 10.0 mi South 4.6 mph - N/A   Clear
8:53 AM 73.6 °F - 63.9 °F 72% 30.26 in 10.0 mi South 5.8 mph - N/A   Clear
9:14 AM 75.0 °F - 62.8 °F 66% 30.26 in 10.0 mi SSW 6.9 mph - N/A   Clear
9:33 AM 76.3 °F - 63.0 °F 63% 30.26 in 10.0 mi SSW 8.1 mph - N/A   Clear
9:53 AM 77.2 °F - 62.1 °F 59% 30.26 in 10.0 mi SSW 9.2 mph - N/A   Clear
10:13 AM 77.9 °F - 60.8 °F 56% 30.26 in 10.0 mi South 6.9 mph - N/A   Clear
10:34 AM 79.3 °F - 61.5 °F 54% 30.26 in 10.0 mi SW 6.9 mph - N/A   Clear
10:54 AM 80.1 °F 80.8 °F 59.5 °F 49% 30.26 in 10.0 mi SSW 6.9 mph - N/A   Clear
11:13 AM 80.6 °F 81.2 °F 59.5 °F 49% 30.26 in 10.0 mi South 8.1 mph - N/A   Clear
11:33 AM 81.3 °F 81.6 °F 58.5 °F 46% 30.26 in 10.0 mi SSW 8.1 mph - N/A   Clear
11:54 AM 81.5 °F 81.5 °F 57.4 °F 44% 30.26 in 10.0 mi SSW 8.1 mph - N/A   Scattered Clouds
12:12 PM 81.9 °F 81.8 °F 58.1 °F 44% 30.25 in 10.0 mi SSE 8.1 mph - N/A   Scattered Clouds
12:34 PM 82.2 °F 82.0 °F 57.7 °F 43% 30.26 in 10.0 mi South 5.8 mph - N/A   Scattered Clouds
12:54 PM 83.5 °F 83.1 °F 58.5 °F 42% 30.26 in 10.0 mi SSE 10.4 mph - N/A   Scattered Clouds
1:13 PM 82.8 °F 82.5 °F 58.1 °F 43% 30.25 in 10.0 mi South 10.4 mph - N/A   Scattered Clouds
1:33 PM 82.8 °F 82.4 °F 57.7 °F 42% 30.24 in 10.0 mi South 8.1 mph - N/A   Scattered Clouds
1:53 PM 83.1 °F 82.9 °F 58.5 °F 43% 30.24 in 10.0 mi SSE 10.4 mph - N/A   Scattered Clouds
2:13 PM 83.8 °F 83.3 °F 57.7 °F 41% 30.24 in 10.0 mi South 13.8 mph 19.6 mph N/A   Scattered Clouds
2:33 PM 84.2 °F 83.5 °F 57.4 °F 40% 30.23 in 10.0 mi South 12.7 mph - N/A   Scattered Clouds
2:53 PM 84.2 °F 83.5 °F 57.2 °F 40% 30.23 in 10.0 mi SSE 13.8 mph 18.4 mph N/A   Clear
3:13 PM 84.0 °F 83.3 °F 57.0 °F 40% 30.23 in 10.0 mi South 9.2 mph 19.6 mph N/A   Scattered Clouds
3:33 PM 84.4 °F 83.7 °F 57.7 °F 40% 30.22 in 10.0 mi South 12.7 mph 20.7 mph N/A   Scattered Clouds
3:53 PM 84.0 °F 83.6 °F 58.8 °F 42% 30.22 in 10.0 mi SSE 11.5 mph 16.1 mph N/A   Scattered Clouds
4:13 PM 84.4 °F 83.5 °F 57.0 °F 39% 30.21 in 10.0 mi South 10.4 mph 19.6 mph N/A   Scattered Clouds
4:32 PM 84.0 °F 83.5 °F 57.7 °F 41% 30.21 in 10.0 mi South 9.2 mph - N/A   Clear
4:53 PM 84.7 °F 84.0 °F 57.9 °F 40% 30.21 in 10.0 mi South 10.4 mph - N/A   Clear
5:13 PM 84.6 °F 84.2 °F 59.2 °F 42% 30.20 in 10.0 mi SSW 8.1 mph - N/A   Scattered Clouds
5:33 PM 82.8 °F 83.0 °F 59.9 °F 46% 30.20 in 10.0 mi South 9.2 mph - N/A   Mostly Cloudy
5:53 PM 82.4 °F 82.9 °F 61.0 °F 48% 30.20 in 10.0 mi SSE 6.9 mph - N/A   Scattered Clouds
6:14 PM 81.5 °F 82.5 °F 62.2 °F 52% 30.19 in 10.0 mi SSE 6.9 mph - N/A   Scattered Clouds
6:33 PM 81.7 °F 82.7 °F 62.6 °F 52% 30.19 in 10.0 mi SSE 6.9 mph - N/A   Scattered Clouds
6:53 PM 82.6 °F 83.6 °F 62.8 °F 51% 30.19 in 10.0 mi SSE 5.8 mph - N/A   Mostly Cloudy
7:14 PM 81.7 °F 83.0 °F 63.5 °F 54% 30.18 in 10.0 mi SSE 6.9 mph - N/A   Mostly Cloudy
7:33 PM 79.7 °F - 63.9 °F 58% 30.18 in 10.0 mi SSE 5.8 mph - N/A   Clear
7:54 PM 79.9 °F - 65.5 °F 61% 30.18 in 10.0 mi SSE 5.8 mph - N/A   Clear
8:13 PM 80.8 °F 82.5 °F 64.6 °F 58% 30.18 in 10.0 mi SE 8.1 mph - N/A   Mostly Cloudy
8:33 PM 77.9 °F - 65.5 °F 65% 30.18 in 10.0 mi SE 6.9 mph - N/A   Scattered Clouds
8:53 PM 75.4 °F - 66.7 °F 74% 30.19 in 10.0 mi SE 5.8 mph - N/A   Clear
9:14 PM 73.6 °F - 67.1 °F 80% 30.19 in 10.0 mi SE 5.8 mph - N/A   Clear
9:34 PM 73.6 °F - 67.1 °F 80% 30.19 in 10.0 mi SE 4.6 mph - N/A   Mostly Cloudy
9:54 PM 73.4 °F - 68.2 °F 84% 30.20 in 10.0 mi SE 3.5 mph - N/A   Overcast
10:12 PM 73.4 °F - 68.2 °F 84% 30.20 in 7.0 mi Calm Calm - N/A   Mostly Cloudy
10:33 PM 74.1 °F - 68.4 °F 82% 30.20 in 10.0 mi Calm Calm - N/A   Mostly Cloudy
10:53 PM 73.8 °F - 68.4 °F 83% 30.20 in 10.0 mi SE 3.5 mph - N/A   Mostly Cloudy
11:13 PM 72.7 °F - 68.2 °F 86% 30.20 in 7.0 mi SE 5.8 mph - N/A   Scattered Clouds
11:33 PM 72.7 °F - 68.0 °F 85% 30.20 in 10.0 mi Calm Calm - N/A   Scattered Clouds
11:53 PM 71.8 °F - 67.6 °F 87% 30.20 in 7.0 mi SSE 4.6 mph - N/A   Scattered Clouds